Regional Weather Roundup
Issued by NWS

Home | Current Version | Previous Version | Text Only | Print | Product List | Glossary Off
Versions: 1 2 3 4 5 6 7 8 9 10 11 12 13 14 15 16 17 18 19 20 21 22 23 24 25 26 27 28 29 30 31 32 33 34 35 36 37 38 39 40 41 42 43 44 45 46 47 48 49 50

000
ASUS43 KBIS 220710
RWRND

NORTH DAKOTA REGIONAL WEATHER ROUNDUP
NATIONAL WEATHER SERVICE BISMARCK ND
200 AM CDT SUN OCT 22 2017

NOTE: "FAIR" INDICATES FEW OR NO CLOUDS BELOW 12,000 FEET WITH NO
SIGNIFICANT WEATHER AND/OR OBSTRUCTIONS TO VISIBILITY.


NDZ001>003-009>011-017-220800-
NORTHWEST NORTH DAKOTA

CITY           SKY/WX    TMP DP  RH WIND       PRES   REMARKS
WILLISTON      CLEAR     35  25  66 SW3       29.81R
MINOT          CLEAR     40  30  67 SW12      29.75R
MINOT AFB      CLEAR     37  30  75 W12       29.73R
$$

NDZ018>021-031>035-040>046-220800-
SOUTHWEST NORTH DAKOTA

CITY           SKY/WX    TMP DP  RH WIND       PRES   REMARKS
BISMARCK       PTCLDY    38  29  70 CALM      29.84R
DICKINSON      CLEAR     36  23  59 W12       29.84R
GARRISON         N/A     37  30  75 W10       29.79R
HETTINGER ARPT CLEAR     32  21  64 W3        29.92R
$$

NDZ004>008-012>016-024-026-027-054-220800-
NORTHEAST NORTH DAKOTA

CITY           SKY/WX    TMP DP  RH WIND       PRES   REMARKS
GRAND FORKS    CLOUDY    49  38  65 W15G25    29.70R
GRND FRKS AFB  MOCLDY    47  37  68 W12       29.70R
DEVILS LAKE    CLEAR     44  36  73 W18       29.71R
$$

NDZ022-023-025-028>030-036>039-047>053-220800-
SOUTHEAST NORTH DAKOTA

CITY           SKY/WX    TMP DP  RH WIND       PRES   REMARKS
FARGO          PTCLDY    48  38  68 W15       29.77R
JAMESTOWN      CLEAR     44  35  70 W15       29.79R
$$





USA.gov is the U.S. government's official web portal to all federal, state and local government web resources and services.